Theta_e
315 324 329 331 332 332 333 334 335 337 338 338 338 338 338 339 339 338 339 340 342 344 344 343 341 341 341 342 342 339 335 335 338 339 338 337 334 333 330 326 330 329 328
318 324 325 328 329 329 329 330 332 334 335 335 334 334 333 335 335 335 335 336 338 340 341 342 340 338 338 339 341 340 339 336 333 332 333 336 338 336 337 331 330 332 329
317 323 323 325 327 327 327 327 328 329 330 330 330 329 330 330 330 331 332 332 334 336 337 338 338 338 337 337 337 337 338 338 339 335 335 331 336 338 333 337 336 333 332
317 321 322 323 324 325 325 325 326 326 325 326 326 326 326 327 326 327 327 328 330 332 333 333 334 333 332 332 334 335 335 337 339 338 336 336 336 337 337 340 340 339 335
315 320 320 322 322 323 323 323 323 323 323 323 324 323 323 323 323 324 325 324 325 326 326 327 328 330 328 329 332 334 334 334 335 337 338 337 337 338 340 341 340 340 339
315 318 319 319 320 320 321 321 321 321 321 320 321 320 319 319 319 320 320 321 321 322 323 323 323 324 324 331 332 331 330 331 332 335 335 335 335 338 339 340 340 341 339
313 316 316 315 316 317 317 318 317 317 317 316 315 315 316 316 316 317 317 318 319 319 319 320 321 321 324 330 329 328 328 328 331 331 331 333 334 337 338 338 339 339 337
310 312 311 310 311 312 313 313 314 313 313 312 311 310 311 312 312 314 314 315 315 316 316 316 317 321 327 326 324 323 324 326 328 329 330 331 335 337 337 338 338 337 336
307 307 306 305 306 307 308 308 309 309 308 307 306 305 305 306 307 308 309 311 313 314 315 315 320 324 323 321 320 319 321 325 326 328 330 332 333 336 336 335 333 333 331
304 304 303 302 302 303 303 302 303 303 302 302 300 299 299 300 302 304 305 308 312 314 314 315 318 319 319 318 316 316 319 322 321 324 327 329 331 332 331 330 329 328 327
302 303 303 301 301 301 299 297 298 297 297 297 297 297 299 299 299 300 303 307 310 312 313 313 313 313 315 313 312 313 315 315 315 317 324 327 328 329 327 326 326 325 324
300 301 302 301 300 299 297 298 298 297 297 297 297 298 298 298 297 298 300 303 304 307 310 311 311 311 314 313 306 308 307 309 310 311 317 325 326 326 325 324 323 322 321
300 300 301 300 299 298 297 296 296 296 297 297 298 298 299 298 299 300 302 304 305 306 306 307 308 309 310 310 304 303 304 304 305 306 311 321 323 324 324 322 321 320 319
299 299 299 298 297 297 297 297 297 297 297 296 296 297 298 298 298 299 302 304 305 306 305 306 306 307 308 307 306 303 301 302 303 304 306 313 319 322 322 321 319 318 317
298 298 297 297 296 296 296 296 296 295 296 295 295 295 297 297 297 299 301 303 304 304 304 303 304 304 304 304 304 303 301 301 302 304 304 308 312 316 319 320 318 317 315
298 297 296 295 295 295 295 295 295 295 295 295 295 294 295 296 297 299 301 301 302 303 302 301 301 301 301 300 299 297 296 295 297 299 302 304 307 310 313 315 316 316 314
297 296 295 294 294 293 294 294 294 293 294 294 293 294 294 295 296 299 300 300 300 300 299 299 298 298 296 295 294 293 292 292 291 291 293 295 300 303 306 309 310 310 311
297 294 294 292 293 293 293 293 293 293 293 293 293 293 293 293 295 298 299 298 299 299 298 297 296 295 294 294 293 293 292 291 291 290 290 290 292 296 298 302 304 306 307
296 294 292 292 291 292 292 292 292 293 293 293 293 292 292 292 295 297 298 298 299 298 297 295 295 295 293 292 292 292 293 292 291 290 289 289 289 290 290 293 296 299 302
295 293 292 291 291 291 291 292 292 292 292 292 292 291 292 291 293 296 297 298 298 297 295 295 294 294 292 291 291 291 292 292 292 291 290 289 289 289 289 289 290 290 295
294 292 291 290 290 290 290 290 290 290 290 290 291 291 291 291 292 295 296 297 298 296 295 294 293 292 292 294 291 290 290 291 290 291 291 290 289 289 288 288 289 289 289
292 291 290 290 289 290 291 292 292 291 291 290 290 290 290 291 291 293 295 295 296 295 294 294 294 293 292 293 293 293 288 288 288 289 290 289 289 289 288 288 287 287 289
291 290 290 290 289 290 291 291 290 290 289 288 288 289 289 290 290 291 293 294 295 295 294 294 294 293 291 291 292 291 288 288 288 288 287 288 288 289 289 288 287 287 287
291 292 291 290 289 289 290 289 288 287 286 288 289 289 288 289 289 290 290 291 292 293 292 292 292 292 292 288 289 289 290 290 287 284 287 287 287 287 288 288 287 287 287
292 291 290 290 289 289 289 289 289 289 290 290 289 288 288 289 289 289 289 290 290 290 290 290 290 290 291 290 290 288 288 288 288 287 286 285 287 288 288 288 289 288 288
292 291 290 289 288 289 288 289 289 289 289 288 288 287 287 288 288 288 288 289 289 289 289 289 290 289 289 289 289 289 288 286 285 285 285 286 285 287 288 288 288 288 289
Wind_Speed
7 7 9 11 11 12 12 12 11 12 13 13 13 14 14 14 14 14 14 14 15 14 13 13 12 12 12 12 9 4 3 3 3 3 4 5 3 3 3 3 6 2 5
8 8 10 11 11 12 13 13 13 13 12 13 12 12 11 12 12 12 11 11 13 14 14 14 12 11 12 11 11 10 5 4 3 3 4 8 7 3 4 3 4 6 3
7 7 9 9 11 12 13 12 13 12 11 11 12 13 12 11 12 12 11 11 10 11 12 13 13 13 13 13 12 11 10 9 8 5 6 8 5 7 3 7 6 6 4
7 6 9 9 11 12 12 11 13 12 10 11 11 11 11 12 12 12 12 11 11 11 12 12 12 11 12 12 12 11 8 8 7 6 7 7 9 7 2 9 11 10 8
7 9 9 10 10 11 11 12 12 11 11 10 10 11 11 11 11 11 11 11 11 11 10 10 10 12 12 9 8 8 8 8 7 6 5 5 7 7 11 13 11 7 10
8 11 10 11 10 11 12 12 12 11 11 11 11 11 11 10 11 11 10 10 10 10 10 10 9 9 9 9 11 11 9 10 11 6 5 4 6 12 13 13 13 11 10
9 10 11 10 10 10 11 11 11 11 11 10 10 10 11 10 10 11 10 11 10 10 10 10 10 9 9 12 15 14 13 13 7 6 8 9 11 12 11 13 9 7 2
9 9 10 10 10 11 10 10 11 11 11 10 10 10 10 11 11 12 12 11 11 10 9 9 9 8 13 16 16 16 17 16 10 10 8 7 13 11 12 22 27 31 29
9 7 6 8 10 11 11 10 10 11 11 11 11 10 11 10 11 11 12 11 11 11 10 9 8 17 17 17 16 16 16 17 13 9 12 9 22 28 27 27 29 30 29
8 7 7 6 5 6 8 10 10 10 10 10 10 8 5 7 8 11 11 12 12 12 11 10 14 16 17 17 18 17 16 18 16 13 8 11 23 28 28 27 28 28 27
7 7 6 6 6 6 7 6 9 8 7 6 5 6 3 6 7 9 11 12 13 11 12 12 12 11 15 19 19 18 16 9 13 10 7 21 25 26 27 26 27 28 27
11 9 7 6 6 5 4 5 5 5 6 6 5 5 5 6 5 5 6 8 7 8 12 13 12 7 8 8 8 14 8 10 10 11 9 20 24 24 26 25 27 24 25
11 8 7 5 5 5 4 4 3 3 3 4 6 5 5 3 3 4 3 3 3 4 6 8 9 8 11 9 10 9 9 9 8 9 18 21 22 23 24 24 24 25 24
11 10 8 7 6 5 4 3 4 3 3 3 4 4 3 3 4 4 3 4 4 5 7 8 7 10 11 12 11 10 10 8 7 7 16 26 25 23 22 23 23 23 22
12 10 9 8 7 6 5 4 4 4 3 4 4 5 4 4 4 4 4 4 5 6 6 7 7 8 10 11 11 11 12 10 9 6 8 26 26 23 24 24 22 21 21
12 11 9 9 7 7 6 5 4 4 4 4 4 5 5 4 4 4 5 5 6 6 6 7 7 7 8 9 11 11 11 11 11 11 8 11 25 24 22 22 21 21 19
11 11 11 10 9 8 8 5 4 4 4 4 5 6 6 5 5 5 5 6 6 6 8 7 8 8 8 8 10 10 10 11 10 11 9 8 9 22 21 19 19 18 17
12 12 11 9 10 9 8 6 5 4 4 4 5 5 6 5 4 5 5 6 5 5 6 6 6 7 7 7 7 8 8 9 10 11 10 8 7 7 13 18 19 18 18
14 14 13 11 11 10 8 6 5 6 4 4 4 5 6 6 5 5 6 5 6 5 6 6 6 6 7 7 7 7 7 7 8 8 9 9 9 8 5 11 14 16 16
14 14 13 11 12 10 8 7 5 5 4 4 4 4 5 5 5 6 6 6 6 6 6 6 7 6 6 6 7 6 5 5 5 5 7 7 7 7 7 6 4 6 12
15 16 15 14 13 10 8 8 6 6 5 4 5 5 5 5 5 6 6 6 6 6 7 8 7 7 5 5 5 5 4 4 4 4 4 4 5 5 5 5 4 3 4
17 17 16 15 14 11 8 7 6 6 5 5 5 5 5 5 5 5 6 6 7 7 7 6 5 4 3 1 3 3 4 3 2 2 3 3 3 3 3 4 4 4 3
18 17 17 16 15 12 11 7 6 5 6 5 6 5 4 5 5 5 6 6 6 6 6 5 3 2 2 1 3 4 2 1 5 3 3 2 3 2 3 3 1 1 1
19 17 16 15 15 13 12 10 12 8 8 7 6 6 5 5 5 5 6 6 6 5 6 5 3 3 1 3 1 2 3 4 3 4 4 4 2 3 3 3 4 3 1
19 17 16 16 15 14 13 11 10 8 6 6 6 9 7 5 5 5 5 6 6 5 5 5 5 4 1 1 0 0 2 2 3 3 2 4 3 3 3 3 3 3 3
17 16 15 17 16 14 14 13 13 10 8 8 8 7 6 5 5 5 5 5 6 6 5 5 5 5 4 4 3 3 3 3 3 3 2 1 3 2 2 3 3 4 3
Wind_Direction
126 83 25 48 48 46 38 36 37 45 54 54 52 44 37 39 38 37 33 24 24 38 55 59 51 38 24 25 18 4 357 359 17 12 348 331 330 353 23 16 323 42 40
120 97 50 51 55 52 47 42 45 43 43 44 42 42 34 33 34 28 31 25 21 25 32 40 44 39 18 15 24 26 16 331 327 319 308 273 245 249 311 299 309 4 7
119 113 78 64 66 63 56 53 55 54 52 55 49 45 42 40 33 27 29 26 27 24 26 27 24 33 28 13 11 8 3 350 328 292 274 268 190 182 284 301 268 273 275
122 115 86 75 72 71 68 66 64 57 50 53 55 54 50 53 43 38 36 30 28 24 27 25 19 21 18 9 1 353 350 342 322 267 266 299 329 128 333 305 287 245 242
124 104 87 78 78 79 78 72 66 61 57 54 57 54 51 51 50 48 45 37 31 24 16 16 14 20 15 357 358 13 12 354 333 271 305 334 344 348 343 318 305 273 222
121 108 89 78 74 77 79 80 76 66 60 53 47 48 52 52 52 48 48 47 40 36 31 29 28 23 14 21 35 29 14 351 323 321 313 3 311 355 333 321 318 290 223
125 119 98 77 76 75 76 78 79 77 71 61 55 45 44 48 49 47 43 44 41 36 32 30 33 30 24 52 46 31 15 349 343 20 8 356 8 352 349 357 345 355 316
131 118 110 88 78 76 75 76 76 73 70 64 56 54 51 41 47 48 43 41 40 38 33 38 38 46 59 54 47 35 23 5 22 20 12 10 18 24 47 54 74 71 71
140 139 135 123 105 87 76 72 71 71 67 59 52 51 51 44 44 45 42 40 44 41 41 49 56 65 58 55 51 42 27 33 42 21 34 49 63 65 67 69 68 69 67
146 147 138 135 121 109 99 77 75 73 73 69 61 54 44 65 50 45 41 42 46 49 53 61 62 64 67 62 57 50 37 48 44 32 48 67 68 71 63 57 62 66 63
152 151 149 143 129 118 109 111 110 89 81 82 92 56 95 56 45 51 47 49 50 56 69 70 70 79 89 69 53 48 50 46 44 32 39 65 68 67 67 59 57 57 62
164 162 154 151 134 127 117 117 100 89 64 59 56 51 58 65 59 59 73 67 68 80 75 70 68 68 62 68 54 46 43 38 42 36 32 58 72 68 64 60 60 60 59
163 151 153 143 135 126 116 121 116 109 108 85 61 42 58 55 49 63 76 80 77 52 67 65 66 60 61 70 64 59 54 48 40 35 21 37 60 66 66 63 61 60 59
167 154 152 145 145 137 144 126 117 103 92 87 63 46 65 65 58 61 68 84 69 68 74 72 70 75 76 75 80 76 65 51 52 45 27 31 41 51 61 64 63 62 62
171 158 159 157 147 144 132 125 109 114 93 89 78 51 37 65 68 80 77 74 77 76 78 79 79 80 76 73 71 71 67 64 57 60 52 38 38 45 51 56 58 57 57
169 165 159 159 150 145 134 132 121 110 108 86 68 55 56 60 66 78 84 81 75 71 67 69 77 82 82 82 75 71 70 68 61 58 59 56 44 40 49 54 52 54 55
175 162 167 158 151 146 139 136 120 108 106 97 93 65 60 49 70 89 93 86 83 87 91 89 89 90 90 86 82 78 74 69 67 64 62 55 57 46 49 46 46 47 48
174 170 162 160 160 154 142 141 129 121 111 102 94 82 68 63 67 96 101 95 93 86 87 87 86 87 84 82 80 77 80 76 75 73 66 61 59 66 55 50 42 41 39
175 173 169 169 162 154 144 135 126 125 117 109 99 91 80 74 74 96 98 99 96 94 87 90 85 92 95 94 89 78 76 80 82 79 76 72 64 56 61 71 62 45 42
178 172 169 169 160 156 151 142 137 130 119 114 101 92 93 84 92 107 106 111 111 103 96 90 94 88 99 101 97 91 86 90 90 89 91 85 77 76 69 57 48 70 45
183 178 176 171 168 164 164 160 155 151 142 128 110 114 105 99 102 118 121 123 118 109 111 113 113 110 105 114 117 102 94 87 95 104 100 104 100 84 75 71 57 37 43
185 183 178 178 172 175 172 160 160 151 159 138 131 120 108 111 115 128 135 133 128 128 125 124 129 120 103 301 286 180 167 163 128 116 115 115 109 120 106 84 72 58 42
188 184 182 179 176 177 170 149 151 143 139 157 155 140 132 126 128 126 130 134 136 138 138 136 143 189 141 116 307 312 229 96 152 168 167 169 161 176 157 157 143 95 49
186 184 181 178 177 177 167 168 171 173 169 171 165 140 142 140 132 126 124 132 134 133 134 133 138 134 210 133 165 9 358 341 273 164 177 195 214 223 215 205 210 204 248
184 181 179 176 178 176 173 179 182 181 174 150 147 149 151 151 148 137 133 128 122 114 115 122 125 118 107 151 336 169 356 1 350 319 128 154 199 201 231 264 251 244 203
179 179 177 176 179 176 179 186 188 185 160 162 163 164 163 162 158 154 144 127 118 113 112 103 101 95 80 69 63 35 15 346 18 340 340 39 344 160 220 226 221 235 240